Probability
84 87 91 94 96 98 100 100 100 100 100 100 100 100 100 100 100 100 99 100 100 100 100 100 100 100 99 97 95 91 87 82 76 69 61 53 46 37 38 48 50 41 34
84 84 86 88 90 94 97 99 100 99 99 100 100 100 100 100 100 100 99 99 100 100 100 100 100 100 99 97 94 90 85 77 70 63 58 52 46 37 34 41 48 44 39
73 69 68 71 74 80 86 93 97 98 99 100 100 100 100 100 100 100 100 99 99 99 99 99 99 99 99 97 94 90 82 72 64 59 54 48 40 31 26 30 40 46 46
46 44 42 45 48 54 65 79 90 95 96 98 99 99 100 100 100 100 100 100 99 98 97 97 97 97 98 97 93 87 79 71 64 59 51 40 29 21 16 18 27 36 38
24 23 22 22 23 26 39 60 78 87 91 95 98 99 100 100 100 99 100 100 99 98 97 96 95 95 96 94 88 80 75 69 62 55 44 33 23 16 10 9 12 18 19
13 12 10 9 10 12 21 42 63 79 87 91 95 98 99 100 100 100 100 100 99 98 96 96 96 96 95 91 83 76 71 63 54 46 38 30 24 17 11 7 5 5 5
6 6 4 5 9 13 19 33 52 71 81 84 88 94 96 96 96 97 98 98 97 97 96 95 95 94 91 86 79 73 66 57 47 39 33 28 21 17 14 9 4 2 1
4 4 2 4 11 20 27 35 48 63 70 71 75 82 84 83 83 87 90 91 92 92 92 92 90 87 83 78 73 67 60 51 41 33 28 23 17 14 12 8 4 1 0
6 5 4 7 15 25 32 39 48 57 59 58 57 59 63 63 64 67 72 75 78 80 81 81 78 75 71 66 63 58 50 40 32 26 21 17 13 9 6 3 1 0 0
6 6 6 10 17 24 31 38 46 51 51 46 40 39 42 43 42 44 48 53 57 61 62 61 59 57 54 51 47 42 34 27 22 18 13 11 8 4 2 0 0 0 0
2 4 6 10 12 15 23 32 40 46 43 36 31 30 29 27 25 25 27 31 35 40 43 41 38 36 33 29 27 24 19 15 13 10 7 4 3 1 0 0 0 0 0
0 3 8 10 10 10 15 21 30 37 33 28 27 26 21 15 13 12 12 15 19 22 25 25 22 18 13 11 11 11 8 6 5 3 2 1 1 0 0 0 0 0 0
1 6 16 20 21 23 21 17 19 23 21 19 20 18 13 8 6 5 4 6 9 10 10 11 10 6 3 3 3 3 2 1 1 0 0 0 0 0 0 0 0 0 0
2 10 23 32 38 44 38 25 17 16 14 12 11 9 6 3 2 2 1 1 3 3 3 3 3 1 0 1 1 1 0 0 0 0 0 0 0 0 0 0 0 0 0
1 9 22 33 45 53 49 36 26 20 13 8 6 4 2 1 1 1 0 0 1 1 0 0 0 0 0 0 0 0 0 0 0 0 0 0 0 0 0 0 0 0 0
0 4 13 27 41 48 47 42 35 27 16 7 3 2 1 0 0 1 0 0 0 0 0 0 0 0 0 0 0 0 0 0 0 0 0 0 0 0 0 0 0 0 0
0 2 7 21 36 41 43 44 41 30 17 6 1 0 0 0 0 0 0 0 0 0 0 0 0 0 0 0 0 0 0 0 0 0 0 0 0 0 0 0 0 0 0
1 3 6 17 32 40 42 44 39 28 14 5 1 0 0 0 0 0 0 0 0 0 0 0 0 0 0 0 0 0 0 0 0 0 0 0 0 0 0 0 0 0 0
4 6 9 19 36 49 49 44 35 21 10 3 0 0 0 0 0 0 0 0 0 0 0 0 0 0 0 0 0 0 0 0 0 0 0 0 0 0 0 0 0 0 0
7 10 15 30 53 68 66 53 35 19 8 2 0 0 0 0 0 0 0 0 0 0 0 0 0 0 0 0 0 0 0 0 0 0 0 0 0 0 0 0 0 0 0
6 9 19 40 66 81 80 67 45 26 14 6 3 3 1 0 0 0 0 0 0 0 0 0 0 0 0 0 0 0 0 0 0 0 0 0 0 0 0 0 0 0 0
2 4 15 37 62 79 83 75 58 40 25 16 10 7 3 1 0 0 0 0 0 0 0 0 0 0 0 0 0 0 0 0 0 0 0 0 0 0 0 0 0 0 0
2 2 9 25 46 65 73 72 65 53 38 26 17 10 5 2 0 0 0 0 0 0 0 0 0 0 0 0 0 0 0 0 0 0 0 0 0 0 0 0 0 0 0
2 2 4 13 29 45 55 61 63 57 44 31 20 12 8 4 1 0 0 0 0 0 0 0 0 0 0 0 0 0 0 0 0 0 0 0 0 0 0 0 0 0 0
1 1 2 6 15 27 37 46 56 56 44 29 18 11 8 5 2 1 0 0 0 0 0 0 0 0 0 0 0 0 0 0 0 0 0 0 0 0 0 0 0 0 0
0 1 1 2 8 18 27 37 50 56 44 27 16 10 5 3 2 1 0 0 0 0 0 0 0 0 0 0 0 0 0 0 0 0 0 0 0 0 0 0 0 0 0
Wind_Speed
7 9 8 7 6 5 2 1 1 2 3 4 5 6 7 6 5 5 6 7 7 7 6 6 5 5 4 5 4 4 4 3 2 3 4 5 7 8 6 5 4 4 3
7 7 7 8 9 8 7 5 4 4 4 4 5 5 5 5 6 5 6 7 7 6 7 7 6 5 5 6 6 6 4 4 4 3 2 3 4 5 6 3 4 4 2
5 5 5 6 7 7 6 6 5 5 5 5 5 5 5 5 6 7 6 6 6 7 7 8 8 7 7 7 8 7 7 6 4 5 4 3 3 3 3 3 3 3 3
4 4 3 4 5 5 5 4 4 5 5 6 5 7 7 8 8 6 5 6 6 7 8 9 8 8 7 8 8 7 6 6 5 4 5 4 2 2 3 3 2 3 3
2 2 2 2 3 5 5 4 4 5 5 6 7 7 7 7 7 7 8 7 7 8 9 9 8 8 8 8 8 7 7 6 6 4 3 4 4 5 4 4 3 3 2
1 1 2 1 1 3 4 4 4 5 5 6 7 7 8 9 9 9 8 7 6 7 9 9 8 9 8 8 7 7 8 7 6 5 4 3 3 4 4 5 4 4 3
3 3 3 3 3 3 3 3 4 5 6 7 7 7 8 9 10 9 8 8 7 6 7 8 7 6 6 7 7 7 7 7 7 5 4 3 3 3 3 3 3 2 3
4 4 5 3 3 3 4 4 4 5 5 6 6 6 7 7 7 8 8 8 7 6 5 5 6 6 5 5 4 4 4 4 4 5 4 3 3 3 2 1 1 2 3
5 6 6 4 3 3 3 4 4 4 5 6 6 6 6 7 8 8 8 7 7 6 4 3 4 4 4 4 4 3 3 3 3 2 3 3 2 1 1 1 0 1 2
6 6 5 4 3 3 2 3 2 3 4 5 6 7 7 7 7 7 8 7 6 4 2 1 1 2 2 3 4 4 4 4 3 3 2 1 1 1 1 0 0 1 1
8 6 5 5 4 4 3 2 2 2 2 3 5 5 6 6 7 6 7 7 5 3 1 1 2 2 3 3 4 4 4 4 4 3 4 4 3 2 2 2 2 1 2
7 7 6 5 5 5 5 4 3 2 2 2 3 4 4 6 6 6 7 7 6 3 2 3 4 5 5 4 5 5 6 6 6 5 5 4 4 4 4 3 3 2 1
7 6 4 3 4 4 5 5 4 3 2 3 3 3 4 5 5 6 6 6 6 4 4 5 6 6 6 7 7 7 7 6 7 6 6 6 6 5 4 4 4 3 4
6 5 3 2 2 3 4 5 5 3 2 2 3 2 2 3 3 4 5 5 6 6 6 7 6 6 7 7 7 8 9 8 7 7 8 8 7 6 5 4 5 5 4
7 6 3 2 2 3 3 3 3 2 2 2 2 1 1 1 2 3 4 4 5 6 6 7 7 6 6 6 7 7 9 8 7 7 7 8 8 8 6 5 5 5 5
9 7 4 2 2 3 3 3 2 2 3 3 3 2 1 2 3 3 3 3 4 5 5 6 7 7 7 8 8 7 7 7 7 6 5 6 6 6 5 5 4 4 5
9 7 5 3 2 3 2 3 3 3 4 4 4 3 3 4 4 3 4 3 4 4 4 5 6 7 7 9 9 8 5 5 5 5 4 5 8 8 5 3 1 1 1
11 8 6 4 3 3 3 3 4 4 5 5 5 4 5 6 5 5 4 4 4 4 3 5 5 5 6 9 10 7 4 5 6 7 7 8 8 8 7 4 3 3 3
11 8 7 7 4 4 4 4 5 5 6 6 6 6 6 6 7 6 6 5 4 4 4 5 5 5 4 7 9 7 3 4 7 8 8 7 7 10 11 6 6 6 5
11 9 8 7 5 5 5 6 6 6 6 6 6 6 6 6 7 7 7 5 5 5 5 5 5 5 5 6 7 7 0 4 6 6 7 10 8 8 10 6 5 5 5
15 12 9 6 5 5 6 7 8 7 6 6 6 6 7 6 7 7 7 6 6 6 5 6 5 5 6 6 6 6 2 1 4 5 6 4 5 6 7 5 3 4 5
19 16 11 7 5 5 7 9 8 7 6 6 7 7 7 8 8 8 8 7 7 7 6 6 5 5 5 5 5 6 6 4 3 5 6 5 3 2 4 4 5 9 8
18 16 14 12 8 6 8 10 9 7 7 6 7 7 8 6 7 9 9 8 7 7 7 7 6 6 5 4 5 5 7 8 6 5 7 6 4 2 3 5 6 6 3
16 16 15 14 12 8 9 9 9 8 8 7 7 6 7 7 8 7 7 8 8 7 7 7 7 7 7 6 5 4 4 7 6 5 5 5 4 4 5 4 3 1 2
14 15 15 15 13 11 11 9 8 8 9 8 8 8 8 8 8 7 5 6 5 6 7 6 7 8 7 7 7 5 4 4 4 4 3 3 4 4 4 2 2 2 3
14 14 15 16 16 14 12 10 8 8 9 9 8 8 7 7 8 8 6 6 5 7 7 5 6 7 11 15 13 11 10 9 7 3 3 4 3 2 2 2 2 3 3
Wind_Direction
29 26 19 11 14 20 16 341 281 260 257 250 236 233 236 243 250 240 233 228 223 217 209 230 222 218 232 232 227 230 239 240 246 263 276 274 272 264 254 236 242 247 231
51 37 25 14 12 15 8 359 356 320 288 268 264 257 256 253 247 250 248 240 226 219 223 222 224 215 224 232 226 221 219 228 218 219 249 282 296 277 259 231 224 231 223
77 54 33 21 6 360 356 355 349 334 320 301 284 279 276 263 258 252 247 242 234 222 222 227 224 217 215 228 227 219 215 225 219 209 200 212 237 300 296 285 259 224 211
90 79 44 20 355 348 345 345 352 342 327 314 297 283 271 266 263 263 260 253 243 236 229 228 227 227 224 224 227 221 211 214 223 219 216 218 207 243 296 300 272 233 225
86 63 24 16 345 336 336 342 353 340 328 313 299 293 286 280 279 276 269 260 247 235 232 228 225 226 228 223 221 218 212 209 215 210 209 218 222 229 238 271 293 300 261
342 9 355 342 329 325 332 342 343 334 328 320 313 305 299 297 292 284 273 264 254 243 236 231 224 224 224 222 220 218 215 211 211 212 214 208 205 212 218 242 264 274 272
304 311 315 308 314 318 329 329 333 331 329 324 322 318 312 303 292 288 284 278 270 256 240 236 231 228 226 224 219 219 219 213 209 210 212 220 226 228 218 236 262 284 285
302 311 302 293 304 318 325 325 332 329 329 328 328 321 318 312 309 309 302 292 281 271 256 238 230 226 223 219 207 207 207 199 204 203 196 211 225 224 206 209 282 302 296
304 303 304 308 311 312 315 320 317 327 332 331 329 317 331 329 321 316 308 298 288 278 264 242 230 211 200 191 182 179 171 159 177 172 177 212 213 203 150 120 180 295 308
295 299 304 304 313 310 301 294 301 318 326 330 330 333 344 337 331 328 328 319 305 298 290 238 180 177 180 176 167 156 155 150 146 141 145 139 76 67 65 57 42 13 326
300 307 310 316 317 307 307 291 292 308 331 335 335 338 343 342 345 347 348 342 326 323 314 116 105 97 99 124 133 129 131 131 124 121 119 99 69 48 15 32 41 35 23
304 304 306 314 317 313 310 305 305 312 326 332 328 346 360 357 358 0 5 6 358 356 57 90 91 91 83 88 107 114 115 114 108 102 98 88 84 65 41 21 32 28 12
306 300 297 304 307 306 307 309 308 312 318 323 328 355 7 10 10 10 16 16 21 27 54 75 80 81 79 78 81 89 94 94 94 91 87 77 69 56 40 37 31 13 7
302 292 275 255 269 280 287 294 296 304 298 304 322 356 18 26 27 26 32 30 33 44 62 66 66 74 79 88 95 95 89 84 78 75 74 68 63 48 16 40 29 18 355
301 295 275 235 227 241 255 270 275 273 282 288 301 298 69 87 81 62 56 55 52 55 62 68 63 66 73 72 81 97 101 96 88 79 79 79 79 65 44 47 28 19 14
304 302 300 286 248 239 253 266 273 253 250 258 256 225 175 145 132 118 104 87 78 67 63 68 67 62 67 56 61 81 95 96 97 95 97 105 74 67 62 60 53 43 39
321 320 317 298 256 238 230 244 249 229 227 236 236 210 187 172 159 151 135 120 105 97 87 83 80 76 65 59 64 67 86 95 94 88 77 80 65 43 24 18 104 113 84
324 320 315 295 260 231 209 217 237 226 225 227 227 210 191 182 170 164 157 148 139 133 121 107 99 93 72 54 51 52 81 91 87 76 69 73 59 30 8 2 29 47 47
314 303 289 278 255 222 210 219 234 238 231 226 220 205 192 184 177 175 170 162 154 150 142 128 122 111 86 57 49 35 89 96 85 74 61 71 66 29 21 22 29 29 12
310 297 278 269 249 208 195 213 230 237 235 224 213 196 185 185 182 177 172 166 162 160 152 142 137 130 108 72 54 19 101 123 111 104 90 72 66 42 30 24 25 21 353
317 311 291 266 247 211 196 212 226 231 226 209 196 188 183 185 180 172 170 167 169 164 157 147 143 133 123 97 64 35 47 131 148 138 115 93 71 47 25 12 19 354 315
329 327 318 294 259 218 208 215 219 219 214 198 190 186 183 191 181 169 170 174 172 163 157 154 149 141 136 115 97 71 56 32 82 102 109 119 118 46 354 347 339 333 326
329 329 330 313 290 236 216 225 215 206 205 198 192 188 186 191 169 171 174 174 173 174 170 170 168 161 147 129 120 95 73 73 82 94 119 142 169 237 276 272 295 319 349
327 327 325 319 313 300 241 221 218 202 198 198 191 188 183 180 175 178 178 179 182 186 182 180 176 164 157 159 162 153 126 111 117 131 148 172 205 252 283 280 258 220 64
318 322 323 317 311 308 292 240 214 205 199 195 191 192 187 181 178 179 175 188 182 190 185 184 177 168 166 160 164 167 157 159 141 152 175 196 206 216 221 197 134 90 75
310 312 316 318 316 311 304 280 233 208 202 197 196 194 187 181 177 170 145 64 115 122 130 147 165 151 141 137 124 116 112 113 125 157 216 207 198 178 145 110 101 96 80